Terminal Aerodrome Forecast
Issued by NWS Boston, MA

Home | Current Version | Previous Version | Text Only | Print | Product List | Glossary On
Versions: 1 2 3 4 5 6 7 8 9 10 11 12 13 14 15 16 17 18 19 20 21 22 23 24 25 26 27 28 29 30 31 32 33 34 35 36 37 38 39 40
000
FTUS41 KBOX 302320
TAFPVD
TAF
KPVD 302320Z 3100/3124 31012G22KT 6SM -SN OVC035
     FM310200 32013G27KT P6SM OVC045
     FM311100 31016G33KT P6SM OVC060
     FM311600 32017G36KT P6SM SCT250
     FM312200 31013G27KT P6SM SKC=

USA.gov is the U.S. government's official web portal to all federal, state and local government web resources and services.